Williams Lake Airport
CYWL : now visible

Airfield :











YOU CAN JOIN US ON...

 
LOGIN :

Register | Disclaimer

   EN    FR    IT 

 









Legend :    VFR   Marginal VFR   IFR   Intensive IFR   Very Intensive IFR
Visi :
Ceiling :
>= 8 km
>= 3000ft
5 to 8 km
1000 to 3000 ft
1500m to 5 km
500 to 1000 ft
800 to 1500m
200 to 500 ft
< 800m
< 200 ft
Symbols :   Thunderstorms  Fog  Heavy snow  Heavy precipitations  Wind > 20 kt






- Airport Elevation : 3085 ft
- IATA code : YWL


CYWL - Williams Lake

CURRENT METAR :
  • 180600Z 26003KT 15SM OVC070 M03/M10 A3026 RMK AC8 SLP297

EXPIRED METARs :
  • 180500Z 27004KT 15SM OVC070 M02/M11 A3025 RMK AC8 SLP294
  • 180400Z 26004KT 15SM OVC070 M03/M10 A3025 RMK AC8 SLP292

TAF TAF CYWL
Valid from the 18 at 07:00 until the 18 at 19:00 UTC


180638Z 1807/1819 VRB03KT P6SM BKN060
TEMPO 1807/1819 P6SM -SHSN RMK NXT FCST BY 181300Z



MET'MAP, your aeronautical weather chart ! - Copyright ORBIFLY December 2007 - Disclaimer

ORBIFLY MET'MAP TEAM :

Programming & Development : Alexandra Zaïnal
Concept & original design : Baudouin d'Aumeries
Assistance for programming : Marc-Olivier Méhu
Technical & hardware support : Manuel Goepfert

Contact : metmap@orbifly.com




SOURCES & CREDITS :

   NOAA       Earth
Advisory